When you browse on this site, cookies collect data to enhance your experience and personalize the content and advertising you see.
Visit our Privacy Policy to learn more. By continuing to use the site, you agree to this use of cookies and data.
  • In Österreich
  • Länderverzeichnis
  • Für 7 Tage
  • Wassertemperatur
  • Wetterkarte
  • News
  • Widgets
  • user-avatar
    Anmelden

    Stündliche Wetter Tlanchinol

    Heute, 21 Oktober, Montag

    Zeit Temperatur Niederschläge Wind Luftdruck Luftfeuchtigkeit
    00:00 +19°C° 0 mm 1 m/S 643 mmHg 93%
    01:00 +19°C° 0 mm 1 m/S 643 mmHg 93%
    02:00 +18°C° 0 mm 1 m/S 642 mmHg 93%
    03:00 +18°C° 0 mm 1 m/S 642 mmHg 92%
    04:00 +18°C° 0 mm 1 m/S 642 mmHg 91%
    05:00 +18°C° 0 mm 1 m/S 642 mmHg 89%
    06:00 +20°C° 0 mm 1 m/S 643 mmHg 83%
    07:00 +22°C° 0 mm 1 m/S 644 mmHg 77%
    08:00 +22°C° 0 mm 0 m/S 645 mmHg 71%
    09:00 +25°C° 0 mm 1 m/S 645 mmHg 68%
    10:00 +26°C° 0 mm 1 m/S 646 mmHg 65%
    11:00 +27°C° 0 mm 1 m/S 646 mmHg 62%
    12:00 +27°C° 1.1 mm 1 m/S 645 mmHg 67%
    13:00 +26°C° 1.1 mm 1 m/S 644 mmHg 73%
    14:00 +25°C° 1.1 mm 1 m/S 643 mmHg 78%
    15:00 +24°C° 0.7 mm 1 m/S 643 mmHg 81%
    16:00 +23°C° 0.7 mm 1 m/S 643 mmHg 85%
    17:00 +20°C° 0.7 mm 0 m/S 643 mmHg 88%
    18:00 +21°C° 1.9 mm 1 m/S 644 mmHg 89%
    19:00 +20°C° 1.9 mm 1 m/S 644 mmHg 91%
    20:00 +19°C° 1.9 mm 1 m/S 645 mmHg 92%
    21:00 +19°C° 4.1 mm 1 m/S 645 mmHg 94%
    22:00 +19°C° 4.1 mm 1 m/S 645 mmHg 95%
    23:00 +18°C° 4.1 mm 1 m/S 645 mmHg 97%

    Morgen, 22 Oktober, Dienstag

    Zeit Temperatur Niederschläge Wind Luftdruck Luftfeuchtigkeit
    00:00 +18°C° 3.5 mm 1 m/S 645 mmHg 97%
    01:00 +18°C° 3.5 mm 1 m/S 645 mmHg 97%
    02:00 +17°C° 3.5 mm 2 m/S 645 mmHg 97%
    03:00 +18°C° 1.2 mm 1 m/S 645 mmHg 96%
    04:00 +16°C° 1.2 mm 1 m/S 645 mmHg 95%
    05:00 +16°C° 1.2 mm 1 m/S 645 mmHg 94%
    06:00 +18°C° 0 mm 1 m/S 646 mmHg 93%
    07:00 +18°C° 0 mm 1 m/S 647 mmHg 91%
    08:00 +19°C° 0 mm 1 m/S 647 mmHg 90%
    09:00 +19°C° 0.1 mm 1 m/S 647 mmHg 89%
    10:00 +18°C° 0.1 mm 2 m/S 647 mmHg 88%
    11:00 +18°C° 0.1 mm 2 m/S 647 mmHg 87%
    12:00 +17°C° 0.2 mm 2 m/S 646 mmHg 89%
    13:00 +17°C° 0.2 mm 2 m/S 646 mmHg 90%
    14:00 +17°C° 0.2 mm 2 m/S 645 mmHg 92%
    15:00 +16°C° 0.5 mm 1 m/S 646 mmHg 94%
    16:00 +16°C° 0.5 mm 1 m/S 646 mmHg 96%
    17:00 +15°C° 0.5 mm 1 m/S 646 mmHg 98%
    18:00 +15°C° 0.6 mm 1 m/S 646 mmHg 98%
    19:00 +15°C° 0.6 mm 1 m/S 647 mmHg 98%
    20:00 +14°C° 0.6 mm 0 m/S 647 mmHg 98%
    21:00 +14°C° 0.9 mm 0 m/S 647 mmHg 98%
    22:00 +14°C° 0.9 mm 0 m/S 647 mmHg 98%
    23:00 +14°C° 0.9 mm 0 m/S 647 mmHg 98%

    übermorgen, 23 Oktober, Mittwoch

    Zeit Temperatur Niederschläge Wind Luftdruck Luftfeuchtigkeit
    00:00 +14°C° 0.6 mm 0 m/S 647 mmHg 98%
    01:00 +14°C° 0.6 mm 0 m/S 647 mmHg 98%
    02:00 +14°C° 0.6 mm 0 m/S 646 mmHg 98%
    03:00 +14°C° 0.2 mm 0 m/S 646 mmHg 97%
    04:00 +14°C° 0.2 mm 0 m/S 646 mmHg 97%
    05:00 +14°C° 0.2 mm 0 m/S 646 mmHg 96%
    06:00 +15°C° 0 mm 0 m/S 646 mmHg 94%
    07:00 +18°C° 0 mm 1 m/S 647 mmHg 91%
    08:00 +18°C° 0 mm 1 m/S 648 mmHg 88%
    09:00 +19°C° 0.1 mm 1 m/S 647 mmHg 85%
    10:00 +20°C° 0.1 mm 1 m/S 647 mmHg 81%
    11:00 +20°C° 0.1 mm 2 m/S 647 mmHg 78%
    12:00 +20°C° 0.1 mm 2 m/S 646 mmHg 79%
    13:00 +20°C° 0.1 mm 2 m/S 645 mmHg 79%
    14:00 +20°C° 0.1 mm 2 m/S 645 mmHg 80%
    15:00 +20°C° 0.2 mm 1 m/S 645 mmHg 85%
    16:00 +19°C° 0.2 mm 1 m/S 644 mmHg 90%
    17:00 +16°C° 0.2 mm 0 m/S 644 mmHg 95%
    18:00 +15°C° 0.2 mm 0 m/S 644 mmHg 95%
    19:00 +16°C° 0.2 mm 1 m/S 645 mmHg 95%
    20:00 +15°C° 0.2 mm 1 m/S 645 mmHg 95%
    21:00 +15°C° 0 mm 1 m/S 645 mmHg 94%
    22:00 +15°C° 0 mm 1 m/S 645 mmHg 93%
    23:00 +15°C° 0 mm 1 m/S 645 mmHg 92%

    24 Oktober, Donnerstag

    Zeit Temperatur Niederschläge Wind Luftdruck Luftfeuchtigkeit
    00:00 +15°C° 0 mm 1 m/S 644 mmHg 92%
    01:00 +14°C° 0 mm 1 m/S 644 mmHg 91%
    02:00 +14°C° 0 mm 1 m/S 643 mmHg 91%
    03:00 +14°C° 0 mm 1 m/S 643 mmHg 90%
    04:00 +14°C° 0 mm 1 m/S 643 mmHg 90%
    05:00 +14°C° 0 mm 1 m/S 643 mmHg 89%
    06:00 +16°C° 0 mm 1 m/S 644 mmHg 83%
    07:00 +19°C° 0 mm 1 m/S 645 mmHg 77%
    08:00 +18°C° 0 mm 0 m/S 646 mmHg 72%
    09:00 +22°C° 0 mm 1 m/S 646 mmHg 69%
    10:00 +23°C° 0 mm 1 m/S 646 mmHg 66%
    11:00 +24°C° 0 mm 2 m/S 646 mmHg 64%
    12:00 +23°C° 0.2 mm 2 m/S 645 mmHg 69%
    13:00 +21°C° 0.2 mm 2 m/S 644 mmHg 74%
    14:00 +21°C° 0.2 mm 2 m/S 643 mmHg 79%
    15:00 +21°C° 0.2 mm 1 m/S 643 mmHg 84%
    16:00 +20°C° 0.2 mm 1 m/S 643 mmHg 89%
    17:00 +17°C° 0.2 mm 0 m/S 643 mmHg 94%
    18:00 +16°C° 0.1 mm 0 m/S 643 mmHg 94%
    19:00 +18°C° 0.1 mm 1 m/S 644 mmHg 95%
    20:00 +16°C° 0.1 mm 1 m/S 644 mmHg 96%
    21:00 +16°C° 0.1 mm 1 m/S 644 mmHg 95%
    22:00 +16°C° 0.1 mm 1 m/S 644 mmHg 95%
    23:00 +16°C° 0.1 mm 1 m/S 644 mmHg 95%

    25 Oktober, Freitag

    Zeit Temperatur Niederschläge Wind Luftdruck Luftfeuchtigkeit
    00:00 +15°C° 0.3 mm 1 m/S 644 mmHg 94%
    01:00 +15°C° 0.3 mm 1 m/S 644 mmHg 93%
    02:00 +15°C° 0.3 mm 1 m/S 644 mmHg 93%
    03:00 +16°C° 0.5 mm 1 m/S 644 mmHg 93%
    04:00 +16°C° 0.5 mm 1 m/S 645 mmHg 93%
    05:00 +16°C° 0.5 mm 1 m/S 645 mmHg 93%
    06:00 +16°C° 2 mm 1 m/S 645 mmHg 95%
    07:00 +15°C° 2 mm 2 m/S 646 mmHg 96%
    08:00 +15°C° 2 mm 2 m/S 646 mmHg 97%
    09:00 +15°C° 1.5 mm 2 m/S 646 mmHg 97%
    10:00 +14°C° 1.5 mm 2 m/S 646 mmHg 96%
    11:00 +14°C° 1.5 mm 2 m/S 646 mmHg 96%
    12:00 +14°C° 0.5 mm 2 m/S 646 mmHg 95%
    13:00 +13°C° 0.5 mm 2 m/S 645 mmHg 95%
    14:00 +13°C° 0.5 mm 1 m/S 645 mmHg 94%
    15:00 +13°C° 0.6 mm 1 m/S 646 mmHg 95%
    16:00 +13°C° 0.6 mm 1 m/S 646 mmHg 95%
    17:00 +13°C° 0.6 mm 1 m/S 647 mmHg 95%
    18:00 +13°C° 0.4 mm 1 m/S 647 mmHg 95%
    19:00 +13°C° 0.4 mm 1 m/S 648 mmHg 95%
    20:00 +13°C° 0.4 mm 1 m/S 648 mmHg 95%
    21:00 +12°C° 0.4 mm 1 m/S 648 mmHg 94%
    22:00 +12°C° 0.4 mm 1 m/S 648 mmHg 94%
    23:00 +10°C° 0.4 mm 2 m/S 648 mmHg 93%

    26 Oktober, Samstag

    Zeit Temperatur Niederschläge Wind Luftdruck Luftfeuchtigkeit
    00:00 +10°C° 0.1 mm 2 m/S 647 mmHg 93%
    01:00 +10°C° 0.1 mm 1 m/S 647 mmHg 92%
    02:00 +10°C° 0.1 mm 1 m/S 647 mmHg 91%
    03:00 +10°C° 0 mm 1 m/S 647 mmHg 89%
    04:00 +10°C° 0 mm 1 m/S 647 mmHg 86%
    05:00 +9°C° 0 mm 1 m/S 647 mmHg 84%
    06:00 +10°C° 0 mm 1 m/S 647 mmHg 78%
    07:00 +11°C° 0 mm 1 m/S 648 mmHg 72%
    08:00 +12°C° 0 mm 1 m/S 648 mmHg 66%
    09:00 +13°C° 0 mm 1 m/S 648 mmHg 63%
    10:00 +14°C° 0 mm 2 m/S 648 mmHg 60%
    11:00 +15°C° 0 mm 2 m/S 648 mmHg 56%
    12:00 +15°C° 0 mm 2 m/S 647 mmHg 58%
    13:00 +15°C° 0 mm 2 m/S 646 mmHg 59%
    14:00 +15°C° 0 mm 2 m/S 646 mmHg 61%
    15:00 +13°C° 0 mm 1 m/S 645 mmHg 68%
    16:00 +12°C° 0 mm 1 m/S 645 mmHg 76%
    17:00 +9°C° 0 mm 0 m/S 645 mmHg 83%
    18:00 +9°C° 0 mm 0 m/S 645 mmHg 84%
    19:00 +8°C° 0 mm 0 m/S 645 mmHg 84%
    20:00 +9°C° 0 mm 1 m/S 645 mmHg 85%
    21:00 +9°C° 0 mm 1 m/S 645 mmHg 84%
    22:00 +9°C° 0 mm 1 m/S 645 mmHg 82%
    23:00 +9°C° 0 mm 1 m/S 645 mmHg 81%

    27 Oktober, Sonntag

    Zeit Temperatur Niederschläge Wind Luftdruck Luftfeuchtigkeit
    00:00 +9°C° 0 mm 1 m/S 644 mmHg 80%
    01:00 +9°C° 0 mm 1 m/S 644 mmHg 80%
    02:00 +8°C° 0 mm 0 m/S 643 mmHg 80%
    03:00 +8°C° 0 mm 0 m/S 643 mmHg 80%
    04:00 +8°C° 0 mm 0 m/S 643 mmHg 80%
    05:00 +9°C° 0 mm 1 m/S 643 mmHg 81%
    06:00 +11°C° 0 mm 1 m/S 644 mmHg 76%
    07:00 +13°C° 0 mm 1 m/S 645 mmHg 72%
    08:00 +15°C° 0 mm 1 m/S 646 mmHg 67%
    09:00 +16°C° 0 mm 1 m/S 646 mmHg 66%
    10:00 +18°C° 0 mm 1 m/S 646 mmHg 65%
    11:00 +18°C° 0 mm 2 m/S 646 mmHg 64%
    12:00 +18°C° 0 mm 2 m/S 646 mmHg 67%
    13:00 +18°C° 0 mm 2 m/S 645 mmHg 70%
    14:00 +18°C° 0 mm 2 m/S 644 mmHg 72%
    15:00 +18°C° 0 mm 1 m/S 644 mmHg 79%
    16:00 +15°C° 0 mm 1 m/S 644 mmHg 86%
    17:00 +13°C° 0 mm 0 m/S 644 mmHg 92%
    18:00 +12°C° 0 mm 0 m/S 644 mmHg 93%
    19:00 +12°C° 0 mm 0 m/S 645 mmHg 94%
    20:00 +11°C° 0 mm 0 m/S 645 mmHg 94%
    21:00 +11°C° 0 mm 0 m/S 645 mmHg 94%
    22:00 +11°C° 0 mm 0 m/S 645 mmHg 94%
    23:00 +11°C° 0 mm 0 m/S 645 mmHg 94%
    Mehr zeigen